Regional Weather Roundup
Issued by NWS Binghamton, NY

Home | Current Version | Previous Version | Text Only | Print | Product List | Glossary On
Versions: 1 2 3 4 5 6 7 8 9 10 11 12 13 14 15 16 17 18 19 20 21 22 23 24 25 26 27 28 29 30 31 32 33 34 35 36 37 38 39 40 41 42 43 44 45 46 47 48 49 50
000
ASUS41 KBGM 172210
RWRBGM

REGIONAL WEATHER ROUNDUP
NATIONAL WEATHER SERVICE BINGHAMTON NY
600 PM EDT THU AUG 17 2017

Note: "fair" indicates few or no clouds below 12,000 feet with no
significant weather and/or obstructions to visibility.

* = Station(s) that does not report precipitation, such as rain,
snow, etc, also no thunder or fog.

NYZ009-015>018-022>025-036-037-044>046-055>057-062-172300
...Central New York...

CITY           SKY/WX    TMP DP  RH WIND       PRES   REMARKS
Binghamton     CLOUDY    76  64  66 S6        29.97F
Cortland       FAIR      79  63  57 SE3       29.94F
Dansville      CLOUDY    82  70  66 CALM      29.86F HX  86
Elmira         CLOUDY    83  66  56 S5        29.90S HX  85
Seneca Falls   CLEAR     79  64  61 E6        29.89F
Ithaca         PTSUNNY   81  66  60 S8        29.94F
Hamilton       SUNNY     75  59  57 SE3       29.96F
Hornell        MOSUNNY   82  64  54 S6        29.93F
Monticello     SUNNY     78  63  59 S5        30.01F
Oneonta        SUNNY     73 N/A N/A CALM      30.00F
Penn Yan       CLOUDY    78  64  61 CALM      29.91F
Rome           CLOUDY    76  57  51 E8        29.94F
Sidney         SUNNY     75  64  69 S3        29.96S
Syracuse       CLOUDY    75  60  59 E9        29.91F
$$

PAZ038>040-043-044-047-048-072-172300
...Northeast Pennsylvania...

CITY           SKY/WX    TMP DP  RH WIND       PRES   REMARKS
Hazleton         N/A     81  64  57 S5        30.03F
Scranton       PTSUNNY   81  65  58 VRB7      29.96F
$$
&&
KEY
WCI = Wind Chill Index
VSB = Visibility
HX  = Heat Index
$$



USA.gov is the U.S. government's official web portal to all federal, state and local government web resources and services.